Tracking 18823 objects as of 20-October-2017
HD Live streaming from Space Station
objects crossing your sky now

BEIDOU 1B

Track BEIDOU 1B now!
BEIDOU 1B is classified as:


NORAD ID: 26643
Int'l Code: 2000-082A
Perigee: 35,747.4 km
Apogee: 36,418.8 km
Inclination: 8.2 °
Period: 1,450.9 minutes
Semi major axis: 42454 km
RCS: 0.1238 m2 (medium)
Launch date: December 20, 2000
Source: People's Republic of China (PRC)
Launch site: Xichang Space Center, China (XSC)

Space-bsaed navigation and positioning system to improve accuracy of weapons and situational awareness of military forces.
aabbcc
Your satellite tracking list
Your tracking list is empty





NASA's NSSDC Master Catalog

Two Line Element Set (TLE):
1 26643U 00082A   17292.83475169 +.00000016 +00000-0 +00000-0 0  9992
2 26643 008.1549 047.4716 0079067 010.1919 349.9338 00.99248441020696
Source of the keplerian elements: AFSPC